Location: Saint-Restitut
(44.3351°N, 4.7915°E)
Time: 16:06:03
(UTC+00:00)

CSL-04 Debris - Pass Details

Date: 27 February 2024
Orbit: 824 x 843 km, 98.8° (Epoch: 21 April)

Event Time Altitude Azimuth Distance (km) Brightness Sun altitude
Exits shadow 19:15:59 26° 147° (SSE) 1,573 5.2 -20.5°
Maximum altitude 19:19:01 67° 72° (ENE) 896 4.1 -21.0°
Drops below altitude 10° 19:24:21 10° 351° (N) 2,434 6.8 -22.0°
Sets 19:26:43 0° 349° (N) 3,372 7.6 -22.4°
